Location: Newark
(53.5628°N, 20.9853°E)
Time: 13:48:34
(UTC+00:00)

ISS - Visible Passes

Search period start: 27 September 2020 00:00
Search period end: 07 October 2020 00:00
Orbit: 419 x 421 km, 51.6° (Epoch: 28 September)

Date Brightness Start Highest point End Pass type
(mag) Time Alt. Az. Time Alt. Az. Time Alt. Az.
27 Sep -3.6 17:25:59 10° W 17:29:20 64° S 17:31:39 18° ESE visible
27 Sep -1.9 19:02:44 10° W 19:04:38 27° WSW 19:04:38 27° WSW visible
28 Sep -3.4 18:15:30 10° W 18:18:48 49° SSW 18:19:09 46° S visible
29 Sep -3.4 17:28:17 10° W 17:31:37 57° S 17:33:42 21° ESE visible
29 Sep -1.4 19:05:15 10° W 19:06:40 19° WSW 19:06:40 19° WSW visible
30 Sep -2.6 18:17:54 10° W 18:20:57 32° SSW 18:21:13 31° SSW visible
01 Oct -2.8 17:30:35 10° W 17:33:48 40° SSW 17:35:48 19° SE visible
01 Oct -0.8 19:08:17 10° WSW 19:08:46 11° WSW 19:08:46 11° WSW visible
02 Oct -3.0 16:43:19 10° W 16:46:36 49° SSW 16:49:53 10° ESE visible
02 Oct -1.6 18:20:32 10° W 18:22:56 18° SSW 18:23:24 18° SSW visible
03 Oct -1.9 17:33:01 10° W 17:35:49 24° SSW 17:38:04 13° SSE visible
04 Oct -2.2 16:45:38 10° W 16:48:40 31° SSW 16:51:42 10° SE visible
05 Oct -1.0 17:36:00 10° WSW 17:37:39 13° SW 17:39:18 10° S visible
06 Oct -1.2 16:48:11 10° W 16:50:33 18° SW 16:52:56 10° S visible
